Location: Invercargill
(46.4000°S, 168.3500°E)
Time: 07:38:37
(UTC+12:00)

SR - Visible Passes

Search period start: 22 July 2019 00:00
Search period end: 01 August 2019 00:00
Orbit: 580 x 876 km, 66.7° (Epoch: 21 July)

Date Brightness Start Highest point End Pass type
(mag) Time Alt. Az. Time Alt. Az. Time Alt. Az.
22 Jul ? 18:31:27 10° SW 18:35:55 34° WNW 18:40:02 10° N visible
23 Jul ? 07:23:06 10° NE 07:26:27 16° ENE 07:29:47 10° ESE visible
24 Jul ? 18:35:01 10° WSW 18:38:18 18° WNW 18:41:25 10° NNW visible
25 Jul ? 07:24:01 10° NNE 07:28:54 27° ENE 07:33:37 10° SE visible
26 Jul ? 06:36:33 10° NE 06:39:39 15° ENE 06:42:43 10° ESE visible
27 Jul ? 07:25:52 10° N 07:31:28 47° ENE 07:36:51 10° SE visible
28 Jul ? 06:37:20 10° NNE 06:42:04 26° ENE 06:46:42 10° SE visible
29 Jul ? 05:50:01 10° NE 05:52:51 14° ENE 05:55:38 10° ESE visible
29 Jul ? 07:28:17 10° NNW 07:34:10 79° ENE 07:39:47 10° SE visible
30 Jul ? 06:39:06 10° N 06:44:38 44° ENE 06:49:57 10° SE visible
31 Jul ? 05:50:38 10° NNE 05:55:15 25° ENE 05:59:44 10° ESE visible
31 Jul ? 07:31:10 10° NW 07:37:00 65° SW 07:42:32 10° SSE visible
